Casa Grande, AZ

9:50 PM MST on November 14, 2019 (GMT -0700)
Casa Grande Municipal

Weather History for KCGZ - September, 2019

Change the Weather History Date:

Sunday, September 29, 2019

  Actual Average Record
Temperature  
Mean Temperature 80 °F -  
Max Temperature 91 °F 92 °F 102 °F (2000)
Min Temperature 69 °F 63 °F 55 °F (2013)
Cooling Degree Days 15    
Growing Degree Days 30 (Base 50)    
Moisture  
Dew Point 56 °F    
Average Humidity 46    
Maximum Humidity 65    
Minimum Humidity 26    
Precipitation  
Precipitation 0.00 in - - ()
Sea Level Pressure  
Sea Level Pressure 29.72 in    
Wind  
Wind Speed 5 mph ()    
Max Wind Speed 13 mph    
Max Gust Speed 22 mph    
Visibility 10.0 miles    
Events      
Averages and records for this station are not official NWS values.
T = Trace of Precipitation, MM = Missing Value Source: Averaged Metar Reports

Daily Weather History Graph

Daily Weather History Graph

Search for Another Location

Airport or City:

Astronomy

Sep. 29, 2019 Rise Set
Actual Time 6:19 AM MST 6:14 PM MST
Civil Twilight 5:55 AM MST 6:39 PM MST
Nautical Twilight 5:26 AM MST 7:07 PM MST
Astronomical Twilight 4:57 AM MST 7:36 PM MST
Moon 7:14 AM MST (9/29) 7:19 PM MST (9/29)
Length of Visible Light 12h 43m
Length of Day
11h 54m
New Moon, 2% of the Moon is Illuminated
Sep 29
New Moon
Oct 5
First Quarter
Oct 13
Full
Oct 21
Last Quarter
Oct 27
New

Hourly Weather History & Observations

Time (MST) Temp. Heat Index Dew Point Humidity Pressure Visibility Wind Dir Wind Speed Gust Speed Precip Events Conditions
12:56 AM 78.1 °F - 59.0 °F 52% 29.69 in 10.0 mi SE 8.1 mph - N/A   Clear
1:56 AM 75.9 °F - 57.9 °F 54% - 10.0 mi North - - N/A   Clear
2:56 AM 73.0 °F - 57.0 °F 57% 29.69 in 10.0 mi Calm Calm - N/A   Clear
3:56 AM 70.0 °F - 57.0 °F 63% 29.71 in 10.0 mi North 4.6 mph - N/A   Clear
4:56 AM 69.1 °F - 57.0 °F 65% 29.72 in 10.0 mi ENE 5.8 mph - N/A   Clear
5:56 AM 71.1 °F - 57.9 °F 63% 29.73 in 10.0 mi South 5.8 mph - N/A   Clear
6:56 AM 73.0 °F - 59.0 °F 61% 29.75 in 10.0 mi SSE 5.8 mph - N/A   Clear
7:56 AM 75.9 °F - 59.0 °F 56% 29.77 in 10.0 mi South 4.6 mph - N/A   Clear
8:56 AM 78.1 °F - 59.0 °F 52% 29.78 in 10.0 mi SSW 5.8 mph - N/A   Clear
9:56 AM 81.0 °F 81.7 °F 61.0 °F 50% 29.78 in 10.0 mi Variable 5.8 mph - N/A   Clear
10:56 AM 82.0 °F 82.7 °F 61.0 °F 49% 29.77 in 10.0 mi SSW 11.5 mph - N/A   Clear
11:56 AM 84.0 °F 83.8 °F 59.0 °F 43% 29.75 in 10.0 mi Calm Calm - N/A   Clear
12:56 PM 88.0 °F 86.5 °F 55.9 °F 34% 29.72 in 10.0 mi Variable 4.6 mph - N/A   Clear
1:56 PM 89.1 °F 86.9 °F 54.0 °F 30% 29.69 in 10.0 mi South 5.8 mph - N/A   Clear
2:56 PM 91.9 °F - 52.0 °F 26% 29.68 in 10.0 mi SSW 12.7 mph 21.9 mph N/A   Clear
3:56 PM 91.0 °F 88.5 °F 53.1 °F 27% 29.67 in 10.0 mi WSW 9.2 mph - N/A   Clear
4:56 PM 89.1 °F 87.7 °F 57.0 °F 34% 29.67 in 10.0 mi WNW 10.4 mph - N/A   Partly Cloudy
5:56 PM 86.0 °F 85.0 °F 57.9 °F 38% 29.68 in 10.0 mi WNW 9.2 mph - N/A   Clear
6:56 PM 82.9 °F 82.4 °F 57.0 °F 41% 29.69 in 10.0 mi West 6.9 mph - N/A   Clear
7:56 PM 81.0 °F 80.8 °F 55.9 °F 42% 29.71 in 10.0 mi West 5.8 mph - N/A   Clear
8:56 PM 77.0 °F - 54.0 °F 45% 29.73 in 10.0 mi West 5.8 mph - N/A   Clear
9:56 PM 75.9 °F - 50.0 °F 40% 29.73 in 10.0 mi Calm Calm - N/A   Clear
10:56 PM 73.9 °F - 46.9 °F 38% 29.74 in 10.0 mi Calm Calm - N/A   Clear
11:56 PM 71.1 °F - 46.9 °F 42% 29.75 in 10.0 mi SSE 4.6 mph - N/A   Clear